Terminal Aerodrome Forecast
Issued by NWS Burlington, VT

Home | Current Version | Previous Version | Text Only | Print | Product List | Glossary On
Versions: 1 2 3 4 5 6 7 8 9 10 11 12 13 14 15 16 17 18
000
FTUS41 KBTV 071114 AAD
TAFBTV
TAF AMD
KBTV 071114Z 0711/0806 15005KT 6SM BR SCT007 OVC040
     FM071300 17009KT P6SM VCSH OVC020
     FM071700 19010G16KT P6SM OVC020
     FM080100 22004KT P6SM BKN035=

USA.gov is the U.S. government's official web portal to all federal, state and local government web resources and services.